Location: Bednik
(45.3500°N, 16.3833°E)
Time: 14:22:05
(UTC+00:00)

Cosmos 1812 - Pass Details

Date: 08 August 2020
Orbit: 517 x 521 km, 82.5° (Epoch: 18 September)

Event Time Altitude Azimuth Distance (km) Brightness Sun altitude
Rises 19:16:53 0° 352° (N) 2,651 7.0 -10.7°
Reaches altitude 10° 19:19:02 10° 354° (N) 1,758 6.0 -11.0°
Maximum altitude 19:22:54 77° 81° (E) 537 2.6 -11.6°
Enters shadow 19:26:26 12° 167° (SSE) 1,625 4.8 -12.1°
